EHI
0 0 0 0 0 0 0 0 0 0 0 0 0 0 0 0 0 0 0 0 0 0 0 0 0 0 0 0 0 0 0 0 0 0 0 0 0 0 0 0 0 0 0
0 0 0 0 0 0 0 0 0 0 0 0 0 0 0 0 0 0 0 0 0 0 0 0 0 0 0 0 0 0 0 0 0 0 0 0 0 0 0 0 0 0 0
0 0 0 0 0 0 0 0 0 0 0 0 0 0 0 0 0 0 0 0 0 0 0 0 0 0 0 0 0 0 0 0 0 0 0 0 0 0 0 0 0 0 0
0 0 0 0 0 0 0 0 0 0 0 0 0 0 0 0 0 0 0 0 0 0 0 0 0 0 0 0 0 0 0 0 0 0 0 0 0 0 0 0 0 0 0
0 0 0 0 0 0 0 0 0 0 0 0 0 0 0 0 0 0 0 0 0 0 0 0 0 0 0 0 0 0 0 0 0 0 0 0 0 0 0 0 0 0 0
0 0 0 0 0 0 0 0 0 0 0 0 0 0 0 0 0 0 0 0 0 0 0 0 0 0 0 0 0 0 0 0 0 0 0 0 0 0 0 0 0 0 0
0 0 0 0 0 0 0 0 0 0 0 0 0 0 0 0 0 0 0 0 0 0 0 0 0 0 0 0 0 0 0 0 0 0 0 0 0 0 0 0 0 0 0
0 0 0 0 0 0 0 0 0 0 0 0 0 0 0 0 0 0 0 0 0 0 0 0 0 0 0 0 0 0 0 0 0 0 0 0 0 0 0 0 0 0 0
0 0 0 0 0 0 0 0 0 0 0 0 0 0 0 0 0 0 0 0 0 0 0 0 0 0 0 0 0 0 0 0 0 0 0 0 0 0 0 0 0 0 0
0 0 0 0 0 0 0 0 0 0 0 0 0 0 0 0 0 0 0 0 0 0 0 0 0 0 0 0 0 0 0 0 0 0 0 0 0 0 0 0 0 0 0
0 0 0 0 0 0 0 0 0 0 0 0 0 0 0 0 0 0 0 0 0 0 0 0 0 0 0 0 0 0 0 0 0 0 0 0 0 0 0 0 0 0 0
0 0 0 0 0 0 0 0 0 0 0 0 0 0 0 0 0 0 0 0 0 0 0 0 0 0 0 0 0 0 0 0 0 0 0 0 0 0 0 0 0 0 0
0 0 0 0 0 0 0 0 0 0 0 0 0 0 0 0 0 0 0 0 0 0 0 0 0 0 0 0 0 0 0 0 0 0 0 0 0 0 0 0 0 0 0
0 0 0 0 0 0 0 0 0 0 0 0 0 0 0 0 0 0 0 0 0 0 0 0 0 0 0 0 0 0 0 0 0 0 0 0 0 0 0 0 0 0 0
0 0 0 0 0 0 0 0 0 0 0 0 0 0 0 0 0 0 0 0 0 0 0 0 0 0 0 0 0 0 0 0 0 0 0 0 0 0 0 0 0 0 0
0 0 0 0 0 0 0 0 0 0 0 0 0 0 0 0 0 0 0 0 0 0 0 0 0 0 0 0 0 0 0 0 0 0 0 0 0 0 0 0 0 0 0
0 0 0 0 0 0 0 0 0 0 0 0 0 0 0 0 0 0 0 0 0 0 0 0 0 0 0 0 0 0 0 0 0 0 0 0 0 0 0 0 0 0 0
0 0 0 0 0 0 0 0 0 0 0 0 0 0 0 0 0 0 0 0 0 0 0 0 0 0 0 0 0 0 0 0 0 0 0 0 0 0 0 0 0 0 0
0 0 0 0 0 0 0 0 0 0 0 0 0 0 0 0 0 0 0 0 0 0 0 0 0 0 0 0 0 0 0 0 0 0 0 0 0 0 0 0 0 0 0
0 0 0 0 0 0 0 0 0 0 0 0 0 0 0 0 0 0 0 0 0 0 0 0 0 0 0 0 0 0 0 0 0 0 0 0 0 0 0 0 0 0 0
0 0 0 0 0 0 0 0 0 0 0 0 0 0 0 0 0 0 0 0 0 0 0 0 0 0 0 0 0 0 0 0 0 0 0 0 0 0 0 0 0 0 0
0 0 0 0 0 0 0 0 0 0 0 0 0 0 0 0 0 0 0 0 0 0 0 0 0 0 0 0 0 0 0 0 0 0 0 0 0 0 0 0 0 0 0
0 0 0 0 0 0 0 0 0 0 0 0 0 0 0 0 0 0 0 0 0 0 0 0 0 0 0 0 0 0 0 0 0 0 0 0 0 0 0 0 0 0 0
0 0 0 0 0 0 0 0 0 0 0 0 0 0 0 0 0 0 0 0 0 0 0 0 0 0 0 0 0 0 0 0 0 0 0 0 0 0 0 0 0 0 0
0 0 0 0 0 0 0 0 0 0 0 0 0 0 0 0 0 0 0 0 0 0 0 0 0 0 0 0 0 0 0 0 0 0 0 0 0 0 0 0 0 0 0
0 0 0 0 0 0 0 0 0 0 0 0 0 0 0 0 0 0 0 0 0 0 0 0 0 0 0 0 0 0 0 0 0 0 0 0 0 0 0 0 0 0 0
Wind_Speed
5 4 4 4 3 4 3 3 4 4 4 4 4 4 3 3 3 3 4 3 4 4 4 4 4 4 3 3 3 3 4 4 5 4 3 3 4 4 3 4 5 6 6
5 5 5 4 4 4 4 4 4 4 4 4 4 4 4 4 4 3 4 4 4 4 4 4 4 3 4 4 3 4 4 4 5 5 4 3 5 4 4 5 5 5 5
6 5 5 5 4 4 4 4 4 4 4 4 4 4 4 4 4 4 4 4 4 4 4 4 4 4 4 3 4 4 3 3 4 5 4 3 4 3 4 4 5 4 6
6 6 6 5 4 4 4 4 4 4 4 5 4 4 4 4 4 4 4 4 4 4 4 4 4 4 4 4 4 4 4 4 4 5 4 4 4 4 4 4 4 4 5
7 6 5 4 4 4 4 4 4 4 5 5 5 5 4 4 3 5 5 4 4 4 4 4 3 3 5 5 5 5 4 4 4 4 4 4 4 4 4 4 5 4 5
7 6 4 4 4 4 4 4 4 4 5 5 5 5 4 3 2 4 7 5 4 4 4 4 3 4 4 5 6 7 7 7 6 5 5 5 6 5 4 4 4 5 5
7 6 5 4 4 4 3 3 4 4 4 4 5 4 5 2 1 4 6 7 5 4 4 4 3 2 4 4 4 7 7 7 8 8 7 7 6 6 5 6 6 6 6
7 6 5 4 4 3 3 3 4 4 3 3 4 4 4 2 2 5 6 7 5 4 4 4 4 4 3 5 5 5 5 4 5 6 7 7 6 6 6 7 7 6 7
7 6 5 4 4 3 3 3 3 3 3 3 2 3 3 2 2 4 6 5 4 4 3 3 4 4 2 4 6 5 5 4 3 6 7 7 8 8 7 6 6 6 6
7 5 4 4 3 3 3 2 2 2 2 2 1 2 2 3 5 5 6 4 4 3 2 2 0 3 5 5 6 5 5 5 5 4 5 7 7 6 8 8 6 6 6
6 5 4 4 3 2 2 1 1 2 2 2 1 0 1 3 3 5 6 4 4 3 2 2 1 2 4 4 6 4 5 6 5 5 4 4 4 4 4 4 5 5 6
7 6 5 4 3 2 2 1 1 1 1 1 1 0 1 2 4 5 6 5 7 4 3 3 3 4 3 3 3 4 5 5 4 3 3 3 3 4 4 4 6 6 7
8 7 6 5 3 2 2 2 1 0 1 0 0 1 1 2 3 3 3 4 5 3 3 5 5 4 3 1 3 4 4 3 3 3 3 4 4 5 5 4 5 6 8
9 8 6 5 5 4 2 1 1 1 0 1 1 1 1 2 3 4 3 2 1 1 1 2 1 1 2 3 2 2 3 3 4 4 4 4 4 4 4 4 5 5 5
9 8 7 5 5 4 3 3 2 4 4 3 2 2 2 2 5 7 6 5 5 4 4 2 2 3 3 4 4 4 4 4 4 4 4 5 5 5 5 5 5 5 5
9 8 6 5 5 4 5 5 7 5 7 7 6 4 4 5 5 5 6 7 7 6 3 2 3 4 4 4 4 4 4 4 4 5 5 5 5 6 6 5 5 5 6
10 8 6 6 6 5 5 5 5 5 6 6 6 6 5 5 4 4 4 3 3 4 2 3 3 3 4 4 4 4 4 5 4 4 4 5 5 5 6 6 6 6 6
10 8 7 6 5 5 4 4 3 4 4 4 5 6 5 5 4 3 3 3 1 2 3 3 3 3 4 4 4 5 5 5 5 5 5 5 6 6 6 6 6 7 8
10 8 7 6 6 5 4 4 3 3 3 2 3 4 4 3 3 1 2 2 3 3 3 3 3 4 4 4 5 5 5 5 6 6 6 6 6 6 7 7 7 8 8
9 10 9 7 7 6 5 5 4 4 3 2 2 1 1 1 0 1 1 2 2 2 3 3 3 4 4 5 5 5 6 6 6 6 6 6 6 7 8 9 8 8 8
10 11 11 8 7 6 6 5 4 4 3 2 2 2 3 1 1 1 2 2 2 3 3 3 4 4 4 5 5 6 7 6 6 6 7 7 7 8 8 8 9 9 9
10 10 9 8 7 6 6 5 4 4 4 3 2 3 2 2 1 1 2 2 3 3 4 4 4 4 5 5 6 6 7 7 7 8 8 8 8 9 9 9 9 9 9
10 10 9 8 7 7 6 5 5 4 4 3 2 2 2 1 1 2 2 3 3 3 4 4 5 5 5 6 6 7 7 7 8 9 10 10 10 10 10 10 12 12 11
10 10 9 8 8 7 7 6 5 4 4 3 3 2 2 2 2 3 3 3 4 4 5 5 6 8 10 9 7 7 7 8 10 10 13 12 12 11 11 11 12 13 13
10 10 9 8 8 7 6 6 5 5 4 4 3 3 3 3 3 4 4 4 5 6 7 7 6 7 10 12 11 9 9 10 11 12 13 12 13 14 13 14 12 13 13
10 9 8 7 7 7 6 6 5 5 4 3 3 3 3 3 4 4 4 5 5 6 7 7 8 10 12 11 12 12 12 13 13 15 13 12 13 13 13 12 15 14 15
Wind_Direction
219 225 232 244 259 264 265 276 280 288 295 301 312 319 326 326 324 312 305 307 296 292 280 273 271 280 276 268 260 260 259 258 263 269 261 265 257 257 244 247 244 234 216
216 223 232 245 247 255 256 260 267 274 283 290 299 302 316 318 314 310 305 302 301 301 297 285 277 268 272 276 269 259 256 257 267 277 276 271 268 263 261 257 250 240 240
208 221 230 234 242 252 260 262 267 269 273 274 280 290 297 301 306 302 295 294 296 295 295 286 284 279 274 276 273 266 256 252 259 265 272 273 274 266 263 258 252 250 251
203 218 231 240 242 251 257 266 267 272 274 280 282 283 286 289 289 291 290 290 293 294 290 284 282 279 279 283 275 274 264 256 252 256 263 264 265 266 259 259 258 243 245
203 215 227 232 234 245 253 255 262 268 272 278 282 279 278 280 296 307 297 288 289 291 284 279 282 300 316 302 296 289 273 260 253 253 257 260 260 259 256 259 262 263 252
204 212 212 227 230 241 253 260 267 269 274 276 276 277 277 275 333 304 293 287 284 283 293 293 272 236 245 250 268 285 287 276 271 262 258 259 264 263 262 258 261 263 262
199 202 205 215 223 238 247 256 262 265 271 277 276 278 279 285 288 284 277 282 280 287 293 294 297 293 273 272 242 242 250 249 260 271 271 270 275 276 270 263 258 262 267
196 198 199 211 221 231 245 259 267 275 276 277 286 289 291 316 330 295 285 263 269 273 276 285 289 291 302 308 293 281 283 273 262 258 268 277 283 286 274 269 274 274 275
194 198 193 201 210 222 234 249 264 276 279 280 292 303 301 329 30 324 294 263 259 263 268 282 295 295 16 310 285 283 285 282 243 242 269 280 291 284 276 269 258 253 263
187 189 184 188 202 218 235 255 256 254 266 276 294 308 323 342 44 5 314 277 273 272 264 261 192 317 346 313 284 286 289 299 301 276 248 243 254 247 234 249 259 259 264
171 169 169 173 187 201 220 234 246 251 258 260 261 300 7 14 45 30 353 313 308 300 297 299 38 39 330 318 297 298 319 312 295 291 289 288 285 282 272 265 264 261 263
157 161 164 166 168 169 178 212 249 252 238 236 236 92 41 62 36 36 16 359 338 319 325 337 25 27 343 330 322 354 337 303 287 293 298 302 303 303 299 290 281 272 265
159 160 161 157 151 157 164 169 180 218 269 300 29 41 50 38 64 57 30 17 357 333 6 27 15 -0 321 305 39 2 326 309 313 310 308 309 311 310 308 302 291 283 278
163 162 163 162 154 143 128 124 98 46 26 29 37 38 44 48 26 11 3 18 32 336 14 73 118 33 353 15 19 12 1 358 338 322 317 315 313 309 306 306 301 298 287
166 164 164 157 151 140 120 71 61 56 31 9 23 27 18 45 42 22 5 8 2 6 342 1 16 20 20 19 14 14 3 357 347 337 327 323 320 318 314 315 308 301 293
170 167 163 159 156 152 141 119 68 72 73 61 41 23 65 57 56 43 36 30 20 352 331 27 25 19 13 8 1 357 357 357 350 341 336 332 327 323 320 318 311 305 300
172 165 162 164 163 166 165 161 147 128 111 88 72 55 47 54 56 46 35 25 9 335 1 28 19 10 0 354 349 345 344 345 339 332 330 330 327 324 321 318 316 311 305
168 160 161 163 166 168 170 170 170 170 161 136 107 83 69 62 52 31 337 292 25 23 18 14 5 354 346 342 340 337 334 334 331 330 328 327 326 322 321 320 317 317 313
163 162 163 159 163 164 164 165 165 166 158 144 137 123 115 115 116 53 314 337 12 11 6 358 349 340 336 334 333 328 325 323 324 322 321 321 319 317 315 315 313 313 308
160 155 158 161 164 165 167 169 169 168 165 160 152 120 132 199 12 46 21 8 358 353 344 339 337 333 330 328 326 321 319 319 321 320 319 317 314 311 309 308 306 305 303
158 158 166 169 169 169 170 173 172 173 172 165 140 74 6 314 345 352 344 342 338 333 331 328 324 322 322 320 317 314 314 314 315 313 312 310 308 306 303 301 301 300 301
160 162 170 170 167 170 171 171 172 173 171 173 163 150 183 248 288 311 322 325 326 324 323 316 312 314 312 310 309 309 309 309 311 312 310 307 305 302 300 297 296 297 296
163 163 166 167 166 161 173 175 176 179 181 185 189 199 213 247 278 297 307 313 313 311 311 306 304 304 307 308 307 305 305 308 310 309 306 302 300 298 296 295 293 293 292
165 167 167 167 168 172 178 177 179 183 189 196 206 220 236 255 275 288 295 299 301 301 302 302 301 304 305 305 302 300 304 312 311 305 301 296 293 290 289 287 288 287 288
167 168 170 171 172 176 179 182 186 189 196 208 221 234 250 265 276 284 291 294 297 297 301 301 297 299 302 302 300 302 313 311 302 299 298 293 288 286 284 283 282 283 282
167 169 172 173 175 179 183 188 192 196 203 212 226 243 259 270 278 286 293 296 299 298 299 298 297 300 300 299 302 308 304 298 294 290 290 288 285 281 281 279 279 278 278